Time,TemperatureF,DewpointF,PressureIn,WindDirection,WindDirectionDegrees,WindSpeedMPH,WindSpeedGustMPH,Humidity,HourlyPrecipIn,Conditions,Clouds,dailyrainin,SolarRadiationWatts/m^2,SoftwareType,DateUTC
2013-05-28 00:23:00,72.0,56.0,-100.00,South,189,5.0,9.0,58,0.00,,,0.15,0.000000,,2013-05-28 04:23:00,
2013-05-28 00:33:00,72.0,56.0,-100.00,South,189,5.0,9.0,58,0.00,,,0.15,0.000000,,2013-05-28 04:33:00,
2013-05-28 00:43:00,72.0,56.0,-100.00,South,189,5.0,9.0,58,0.00,,,0.15,0.000000,,2013-05-28 04:43:00,
2013-05-28 00:52:00,72.0,56.0,-100.00,South,189,5.0,9.0,58,0.00,,,0.15,0.000000,,2013-05-28 04:52:00,
2013-05-28 01:22:00,70.0,56.0,-100.00,South,187,4.0,8.0,62,0.00,,,0.14,0.000000,,2013-05-28 05:22:00,
2013-05-28 01:33:00,70.0,56.0,-100.00,South,187,4.0,8.0,62,0.00,,,0.14,0.000000,,2013-05-28 05:33:00,
2013-05-28 01:42:00,70.0,56.0,-100.00,South,187,4.0,8.0,62,0.00,,,0.14,0.000000,,2013-05-28 05:42:00,
2013-05-28 01:52:00,70.0,56.0,-100.00,South,187,4.0,8.0,62,0.00,,,0.14,0.000000,,2013-05-28 05:52:00,
2013-05-28 02:22:00,69.0,57.0,-100.00,SSW,203,4.0,9.0,65,0.00,,,0.13,0.000000,,2013-05-28 06:22:00,
2013-05-28 02:32:00,69.0,57.0,-100.00,SSW,203,4.0,9.0,65,0.00,,,0.13,0.000000,,2013-05-28 06:32:00,
2013-05-28 02:42:00,69.0,57.0,-100.00,SSW,203,4.0,9.0,65,0.00,,,0.13,0.000000,,2013-05-28 06:42:00,
2013-05-28 02:52:00,69.0,57.0,-100.00,SSW,203,4.0,9.0,65,0.00,,,0.13,0.000000,,2013-05-28 06:52:00,
2013-05-28 03:22:00,69.0,57.0,-100.00,SW,233,4.0,7.0,66,0.00,,,0.13,0.000000,,2013-05-28 07:22:00,
2013-05-28 03:32:00,69.0,57.0,-100.00,SW,233,4.0,7.0,66,0.00,,,0.13,0.000000,,2013-05-28 07:32:00,
2013-05-28 03:42:00,69.0,57.0,-100.00,SW,233,4.0,7.0,66,0.00,,,0.13,0.000000,,2013-05-28 07:42:00,
2013-05-28 03:52:00,69.0,57.0,-100.00,SW,233,4.0,7.0,66,0.00,,,0.13,0.000000,,2013-05-28 07:52:00,
2013-05-28 04:22:00,69.0,58.0,-100.00,SW,235,5.0,10.0,67,0.00,,,0.13,0.000000,,2013-05-28 08:22:00,
2013-05-28 04:32:00,69.0,58.0,-100.00,SW,235,5.0,10.0,67,0.00,,,0.13,0.000000,,2013-05-28 08:32:00,
2013-05-28 04:42:00,69.0,58.0,-100.00,SW,235,5.0,10.0,67,0.00,,,0.13,0.000000,,2013-05-28 08:42:00,
2013-05-28 04:52:00,69.0,58.0,-100.00,SW,235,5.0,10.0,67,0.00,,,0.13,0.000000,,2013-05-28 08:52:00,
2013-05-28 05:22:00,69.0,58.0,-100.00,SW,230,5.0,10.0,69,0.00,,,0.00,0.000000,,2013-05-28 09:22:00,
2013-05-28 05:33:00,69.0,58.0,-100.00,SW,230,5.0,10.0,69,0.00,,,0.00,0.000000,,2013-05-28 09:33:00,
2013-05-28 05:43:00,69.0,58.0,-100.00,SW,230,5.0,10.0,69,0.00,,,0.00,0.000000,,2013-05-28 09:43:00,
2013-05-28 05:53:00,69.0,58.0,-100.00,SW,230,5.0,10.0,69,0.00,,,0.00,0.000000,,2013-05-28 09:53:00,
2013-05-28 06:23:00,66.0,61.0,-100.00,South,181,4.0,9.0,84,0.01,,,0.01,0.000000,,2013-05-28 10:23:00,
2013-05-28 06:32:00,66.0,61.0,-100.00,South,181,4.0,9.0,84,0.01,,,0.01,0.000000,,2013-05-28 10:32:00,
2013-05-28 06:43:00,66.0,61.0,-100.00,South,181,4.0,9.0,84,0.01,,,0.01,0.000000,,2013-05-28 10:43:00,
2013-05-28 06:53:00,66.0,61.0,-100.00,South,181,4.0,9.0,84,0.01,,,0.01,0.000000,,2013-05-28 10:53:00,
2013-05-28 07:22:00,67.0,60.0,-100.00,SSW,203,3.0,9.0,78,0.00,,,0.01,4.000000,,2013-05-28 11:22:00,
2013-05-28 07:32:00,67.0,60.0,-100.00,SSW,203,3.0,9.0,78,0.00,,,0.01,4.000000,,2013-05-28 11:32:00,
2013-05-28 07:42:00,67.0,60.0,-100.00,SSW,203,3.0,9.0,78,0.00,,,0.01,4.000000,,2013-05-28 11:42:00,
2013-05-28 07:52:00,67.0,60.0,-100.00,SSW,203,3.0,9.0,78,0.00,,,0.01,4.000000,,2013-05-28 11:52:00,
2013-05-28 08:22:00,68.0,60.0,-100.00,SW,227,4.0,8.0,76,0.00,,,0.01,38.000000,,2013-05-28 12:22:00,
2013-05-28 08:32:00,68.0,60.0,-100.00,SW,227,4.0,8.0,76,0.00,,,0.01,38.000000,,2013-05-28 12:32:00,
2013-05-28 08:42:00,68.0,60.0,-100.00,SW,227,4.0,8.0,76,0.00,,,0.01,38.000000,,2013-05-28 12:42:00,
2013-05-28 08:52:00,68.0,60.0,-100.00,SW,227,4.0,8.0,76,0.00,,,0.01,38.000000,,2013-05-28 12:52:00,
2013-05-28 09:22:00,70.0,61.0,-100.00,SSW,207,4.0,8.0,72,0.00,,,0.01,102.000000,,2013-05-28 13:22:00,
2013-05-28 09:32:00,70.0,61.0,-100.00,SSW,207,4.0,8.0,72,0.00,,,0.01,102.000000,,2013-05-28 13:32:00,
2013-05-28 09:42:00,70.0,61.0,-100.00,SSW,207,4.0,8.0,72,0.00,,,0.01,102.000000,,2013-05-28 13:42:00,
2013-05-28 09:52:00,70.0,61.0,-100.00,SSW,207,4.0,8.0,72,0.00,,,0.01,102.000000,,2013-05-28 13:52:00,
2013-05-28 10:22:00,74.0,61.0,-100.00,SW,226,6.0,15.0,63,0.00,,,0.01,232.000000,,2013-05-28 14:22:00,
2013-05-28 10:32:00,74.0,61.0,-100.00,SW,226,6.0,15.0,63,0.00,,,0.01,232.000000,,2013-05-28 14:32:00,
2013-05-28 10:42:00,74.0,61.0,-100.00,SW,226,6.0,15.0,63,0.00,,,0.01,232.000000,,2013-05-28 14:42:00,
2013-05-28 10:52:00,74.0,61.0,-100.00,SW,226,6.0,15.0,63,0.00,,,0.01,232.000000,,2013-05-28 14:52:00,
2013-05-28 11:21:00,78.0,63.0,-100.00,SW,224,6.0,18.0,60,0.00,,,0.01,378.000000,,2013-05-28 15:21:00,
2013-05-28 11:33:00,78.0,63.0,-100.00,SW,224,6.0,18.0,60,0.00,,,0.01,378.000000,,2013-05-28 15:33:00,
2013-05-28 11:43:00,78.0,63.0,-100.00,SW,224,6.0,18.0,60,0.00,,,0.01,378.000000,,2013-05-28 15:43:00,
2013-05-28 11:53:00,78.0,63.0,-100.00,SW,224,6.0,18.0,60,0.00,,,0.01,378.000000,,2013-05-28 15:53:00,
2013-05-28 13:22:00,80.0,62.0,-100.00,SW,220,9.0,19.0,54,-99.99,,,0.01,378.000000,,2013-05-28 17:22:00,
2013-05-28 13:32:00,80.0,62.0,-100.00,SW,220,9.0,19.0,54,-99.99,,,0.01,378.000000,,2013-05-28 17:32:00,
2013-05-28 13:42:00,80.0,62.0,-100.00,SW,220,9.0,19.0,54,-99.99,,,0.01,378.000000,,2013-05-28 17:42:00,
2013-05-28 13:52:00,80.0,62.0,-100.00,SW,220,9.0,19.0,54,-99.99,,,0.01,378.000000,,2013-05-28 17:52:00,
2013-05-28 14:22:00,81.0,58.0,-100.00,SW,224,7.0,20.0,46,0.00,,,0.01,359.000000,,2013-05-28 18:22:00,
2013-05-28 14:32:00,81.0,58.0,-100.00,SW,224,7.0,20.0,46,0.00,,,0.01,359.000000,,2013-05-28 18:32:00,
2013-05-28 14:42:00,81.0,58.0,-100.00,SW,224,7.0,20.0,46,0.00,,,0.01,359.000000,,2013-05-28 18:42:00,
2013-05-28 14:52:00,81.0,58.0,-100.00,SW,224,7.0,20.0,46,0.00,,,0.01,359.000000,,2013-05-28 18:52:00,
2013-05-28 15:22:00,83.0,59.0,-100.00,SW,223,7.0,17.0,44,0.00,,,0.01,406.000000,,2013-05-28 19:22:00,
2013-05-28 15:32:00,83.0,59.0,-100.00,SW,223,7.0,17.0,44,0.00,,,0.01,406.000000,,2013-05-28 19:32:00,
2013-05-28 15:42:00,83.0,59.0,-100.00,SW,223,7.0,17.0,44,0.00,,,0.01,406.000000,,2013-05-28 19:42:00,
2013-05-28 15:52:00,83.0,59.0,-100.00,SW,223,7.0,17.0,44,0.00,,,0.01,406.000000,,2013-05-28 19:52:00,
2013-05-28 16:22:00,84.0,59.0,-100.00,SSW,202,7.0,17.0,43,0.00,,,0.01,410.000000,,2013-05-28 20:22:00,
2013-05-28 16:32:00,84.0,59.0,-100.00,SSW,202,7.0,17.0,43,0.00,,,0.01,410.000000,,2013-05-28 20:32:00,
2013-05-28 16:42:00,84.0,59.0,-100.00,SSW,202,7.0,17.0,43,0.00,,,0.01,410.000000,,2013-05-28 20:42:00,
2013-05-28 16:52:00,84.0,59.0,-100.00,SSW,202,7.0,17.0,43,0.00,,,0.01,410.000000,,2013-05-28 20:52:00,
2013-05-28 17:22:00,82.0,57.0,-100.00,SSW,198,7.0,19.0,43,0.00,,,0.01,336.000000,,2013-05-28 21:22:00,
2013-05-28 17:33:00,82.0,57.0,-100.00,SSW,198,7.0,19.0,43,0.00,,,0.01,336.000000,,2013-05-28 21:33:00,
2013-05-28 17:43:00,82.0,57.0,-100.00,SSW,198,7.0,19.0,43,0.00,,,0.01,336.000000,,2013-05-28 21:43:00,
2013-05-28 17:53:00,82.0,57.0,-100.00,SSW,198,7.0,19.0,43,0.00,,,0.01,336.000000,,2013-05-28 21:53:00,
2013-05-28 18:22:00,82.0,59.0,-100.00,SSW,204,7.0,19.0,45,0.00,,,-99.99,264.000000,,2013-05-28 22:22:00,
2013-05-28 18:33:00,82.0,59.0,-100.00,SSW,204,7.0,19.0,45,0.00,,,-99.99,264.000000,,2013-05-28 22:33:00,
2013-05-28 18:42:00,82.0,59.0,-100.00,SSW,204,7.0,19.0,45,0.00,,,-99.99,264.000000,,2013-05-28 22:42:00,
2013-05-28 18:52:00,82.0,59.0,-100.00,SSW,204,7.0,19.0,45,0.00,,,-99.99,264.000000,,2013-05-28 22:52:00,
2013-05-28 19:22:00,81.0,58.0,-100.00,SW,215,4.0,19.0,46,0.00,,,0.01,154.000000,,2013-05-28 23:22:00,
2013-05-28 19:32:00,81.0,58.0,-100.00,SW,215,4.0,19.0,46,0.00,,,0.01,154.000000,,2013-05-28 23:32:00,
2013-05-28 19:42:00,81.0,58.0,-100.00,SW,215,4.0,19.0,46,0.00,,,0.01,154.000000,,2013-05-28 23:42:00,
2013-05-28 19:52:00,81.0,58.0,-100.00,SW,215,4.0,19.0,46,0.00,,,0.01,154.000000,,2013-05-28 23:52:00,
2013-05-28 20:22:00,80.0,59.0,-100.00,SW,215,3.0,16.0,48,0.00,,,0.01,107.000000,,2013-05-29 00:22:00,
2013-05-28 20:32:00,80.0,59.0,-100.00,SW,215,3.0,16.0,48,0.00,,,0.01,107.000000,,2013-05-29 00:32:00,
2013-05-28 20:42:00,80.0,59.0,-100.00,SW,215,3.0,16.0,48,0.00,,,0.01,107.000000,,2013-05-29 00:42:00,
2013-05-28 20:52:00,80.0,59.0,-100.00,SW,215,3.0,16.0,48,0.00,,,0.01,107.000000,,2013-05-29 00:52:00,
2013-05-28 21:22:00,76.0,59.0,-100.00,SSE,165,1.0,7.0,56,0.00,,,0.01,22.000000,,2013-05-29 01:22:00,
2013-05-28 21:32:00,76.0,59.0,-100.00,SSE,165,1.0,7.0,56,0.00,,,0.01,22.000000,,2013-05-29 01:32:00,
2013-05-28 21:42:00,76.0,59.0,-100.00,SSE,165,1.0,7.0,56,0.00,,,0.01,22.000000,,2013-05-29 01:42:00,
2013-05-28 21:52:00,76.0,59.0,-100.00,SSE,165,1.0,7.0,56,0.00,,,0.01,22.000000,,2013-05-29 01:52:00,
2013-05-28 22:22:00,73.0,60.0,-100.00,SSE,150,3.0,5.0,64,0.00,,,0.01,0.000000,,2013-05-29 02:22:00,
2013-05-28 22:32:00,73.0,60.0,-100.00,SSE,150,3.0,5.0,64,0.00,,,0.01,0.000000,,2013-05-29 02:32:00,
2013-05-28 22:42:00,73.0,60.0,-100.00,SSE,150,3.0,5.0,64,0.00,,,0.01,0.000000,,2013-05-29 02:42:00,
2013-05-28 22:51:00,73.0,60.0,-100.00,SSE,150,3.0,5.0,64,0.00,,,0.01,0.000000,,2013-05-29 02:51:00,
2013-05-28 23:22:00,73.0,58.0,-100.00,SSE,151,2.0,8.0,60,0.00,,,0.01,0.000000,,2013-05-29 03:22:00,
2013-05-28 23:33:00,73.0,58.0,-100.00,SSE,151,2.0,8.0,60,0.00,,,0.01,0.000000,,2013-05-29 03:33:00,
2013-05-28 23:43:00,73.0,58.0,-100.00,SSE,151,2.0,8.0,60,0.00,,,0.01,0.000000,,2013-05-29 03:43:00,
2013-05-28 23:53:00,73.0,58.0,-100.00,SSE,151,2.0,8.0,60,0.00,,,0.01,0.000000,,2013-05-29 03:53:00,